Location: Paddlesworth
(51.1000°N, 1.1333°E)
Time: 20:41:30
(UTC+00:00)

Cosmos 1340 Rocket - Pass Details

Date: 11 May 2021
Orbit: 527 x 559 km, 81.2° (Epoch: 21 June)

Event Time Altitude Azimuth Distance (km) Brightness Sun altitude
Rises 22:24:26 0° 344° (NNW) 2,761 8.1 -18.2°
Reaches altitude 10° 22:26:38 10° 341° (NNW) 1,860 6.8 -18.3°
Maximum altitude 22:30:40 58° 262° (W) 657 3.2 -18.5°
Enters shadow 22:32:02 37° 202° (SSW) 880 3.4 -18.6°
